Home   Weather   Columbia   Past weeks
Flag for USA

Past Weather in Columbia, South Carolina, USA — December 2017

Now
82 °F

Scattered clouds.


Feels Like: 87 °F
Forecast: 88 / 72 °F
Wind: N/A

Location: Columbia Owens Downtown Airport

Current Time: Jun 18, 2019 at 10:56:59 am

Latest Report: Jun 18, 2019 at 10:07 am


Visibility: N/A

Pressure: 30.04 "Hg

Humidity: 72%

Dew Point: 72 °F

Location of ColumbiaLocation

December 2017 Weather in Columbia — Graph

°F

High & Low Weather Summary for December 2017

 TemperatureHumidityPressure
High77 °F (Dec 19, 2:53 pm)100% (Dec 1, 4:11 am)30.57 "Hg (Dec 1, 4:11 am)
Low28 °F (Dec 10, 6:53 am)20% (Dec 26, 1:53 pm)29.72 "Hg (Dec 12, 1:53 pm)
Average49 °F70%30.13 "Hg
* Reported Dec 1 12:53 am — Dec 31 11:53 pm, Columbia. Weather by CustomWeather, © 2019

Note: Actual official high and low records may vary slightly from our data, if they occured in-between our weather recording intervals... More about our weather records

Advertising

Columbia Weather History for December 1, 2017

Scroll right to see more
 ConditionsComfort  
Time TempWeatherWind HumidityBarometerVisibility
12:53 am
Fri, Dec 1
59 °FLight rain. Fog.No wind96%30.08 "Hg6 mi
1:53 am59 °FFog.No wind96%30.08 "Hg5 mi
2:53 am58 °FFog.No wind97%30.07 "Hg4 mi
4:01 am57 °FFog.No wind96%30.08 "Hg2 mi
4:11 am56 °FFog.No wind100%30.09 "Hg3 mi
4:36 am55 °FFog.No wind100%30.09 "Hg1 mi
4:53 am55 °FFog.No wind96%30.08 "Hg3 mi
5:18 am54 °FFog.No wind100%30.09 "Hg3 mi
5:37 am54 °FFog.No wind97%30.09 "Hg2 mi
5:53 am53 °FFog.No wind100%30.09 "Hg1 mi
6:53 am53 °FFog.No wind100%30.11 "Hg0 mi
7:53 am54 °FFog.No wind100%30.14 "Hg0 mi
8:32 am56 °FFog.No wind100%30.15 "Hg1 mi
8:53 am57 °FFog.No wind100%30.15 "Hg1 mi
9:25 am59 °FFog.No wind100%30.17 "Hg2 mi
10:00 am60 °FFog.No wind96%30.18 "Hg2 mi
10:53 am61 °FFog.3 mph93%30.17 "Hg3 mi
11:13 am61 °FFog.3 mph93%30.16 "Hg3 mi
11:53 am62 °FFog.No wind90%30.15 "Hg3 mi
12:53 pm66 °FPartly sunny.5 mph78%30.12 "Hg5 mi
1:53 pm68 °FSunny.5 mph73%30.11 "Hg6 mi
2:53 pm68 °FSunny.6 mph70%30.10 "Hg6 mi
3:53 pm67 °FOvercast.3 mph73%30.10 "Hg9 mi
4:53 pm67 °FOvercast.No wind76%30.11 "Hg9 mi
5:53 pm64 °FOvercast.No wind84%30.12 "Hg10 mi
6:53 pm61 °FPassing clouds.No wind90%30.14 "Hg8 mi
7:53 pm61 °FOvercast.No wind90%30.15 "Hg7 mi
8:31 pm61 °FPartly cloudy.No wind90%30.16 "Hg7 mi
8:53 pm62 °FMostly cloudy.No wind90%30.16 "Hg8 mi
9:53 pm60 °FPartly cloudy.No wind93%30.16 "Hg7 mi
10:53 pm59 °FClear.No wind87%30.16 "Hg10 mi
11:53 pm58 °FPassing clouds.No wind84%30.16 "Hg10 mi
Weather by CustomWeather, © 2019

See weather overview